Location: Sceptre
(50.8619°N, 109.2670°W)
Time: 21:28:39
(UTC+00:00)

Envisat - Pass Details

Date: 01 February 2022
Orbit: 764 x 765 km, 98.2° (Epoch: 21 May)

Event Time Altitude Azimuth Distance (km) Brightness Sun altitude
Rises 13:52:20 0° 5° (N) 3,244 6.1 -9.8°
Reaches altitude 10° 13:55:10 10° 349° (N) 2,314 5.2 -9.3°
Maximum altitude 13:58:50 20° 303° (WNW) 1,699 4.2 -8.8°
Drops below altitude 10° 14:02:29 10° 257° (WSW) 2,304 5.0 -8.2°
Sets 14:05:18 0° 241° (WSW) 3,227 5.8 -7.8°
